Regional Weather Roundup
Issued by NWS

Home | Current Version | Previous Version | Text Only | Print | Product List | Glossary On
Versions: 1 2 3 4 5 6 7 8 9 10 11 12 13 14 15 16 17 18 19 20 21 22 23 24 25 26 27 28 29 30 31 32 33 34 35 36 37 38 39 40 41 42 43 44 45 46 47 48 49 50
000
ASUS43 KLSX 032307
RWRMO

WEATHER SUMMARY FOR MISSOURI
NATIONAL WEATHER SERVICE SPRINGFIELD MO
500 PM CST TUE MAR 03 2015

NOTE: "FAIR" INDICATES FEW OR NO CLOUDS BELOW 12,000 FEET WITH NO
       SIGNIFICANT WEATHER AND/OR OBSTRUCTIONS TO VISIBILITY.
       CURRENT SKY AND/OR WEATHER CONDITIONS ARE NOT AVAILABLE FOR
       CHILLICOTHE AND FARMINGTON.

MOZ001>031-035>038-043-044-053-054-040000-
...NORTHERN AND WESTERN MISSOURI...

CITY           SKY/WX    TMP DP  RH WIND       PRES   REMARKS
KANSAS CTY INT CLOUDY    40  29  64 N7        29.87R
KANSAS C DTWN  CLOUDY    43  28  55 N9        29.88R
LEE`S SUMMIT   CLOUDY    40  30  67 N12       29.88R
ST JOSEPH      CLOUDY    37  27  67 N22       29.90R WCI  26
CHILLICOTHE      N/A     38  30  73 NW8       29.87F

$$
MOZ066>068-077>081-088>096-101>105-040000-
...SOUTHWEST MISSOURI...

CITY           SKY/WX    TMP DP  RH WIND       PRES   REMARKS
SPRINGFIELD    CLOUDY    47  42  83 NW10      29.84S
JOPLIN         CLOUDY    47  44  90 SW3       29.85S

$$
MOZ032>034-039>042-045>050-055>058-069>072-040000-
...CENTRAL MISSOURI...

CITY           SKY/WX    TMP DP  RH WIND       PRES   REMARKS
COLUMBIA       CLOUDY    42  40  92 NW7       29.83R FOG
JEFFERSON CITY CLOUDY    46  39  76 W7        29.84R
ROLLA          CLOUDY    44  39  82 W14       29.83R
SEDALIA        CLOUDY    41  36  82 N13G21    29.87R
WHITEMAN AFB   CLOUDY    40  35  83 N7        29.88R
WARRENSBURG    CLOUDY    39  34  81 N6        29.86R
OSAGE BEACH    CLOUDY    46  37  71 SW6       29.85R

$$
MOZ051-052-059>065-040000-
...EAST CENTRAL MISSOURI...

CITY           SKY/WX    TMP DP  RH WIND       PRES   REMARKS
ST LOUIS INTL  CLOUDY    44  40  85 NW3       29.83S FOG
SPIRIT OF STL  CLOUDY    43  40  89 CALM      29.81F
ST CHARLES     CLOUDY    42  37  82 W10       29.81F

$$
MOZ072>076-082>087-097>100-106>115-040000-
...SOUTH CENTRAL AND SOUTHEAST MISSOURI...

CITY           SKY/WX    TMP DP  RH WIND       PRES   REMARKS
CAPE GIRARDEAU RAIN      40  40 100 CALM      29.86F VSB 1/4
FARMINGTON     CLOUDY    46  45  93 SW6       29.85F
POPLAR BLUFF   LGT RAIN  42  39  89 SW5       29.85R FOG
WEST PLAINS    FOG       48  47  96 SW3       29.82F VSB 1/2

$$



USA.gov is the U.S. government's official web portal to all federal, state and local government web resources and services.